Regional Weather Roundup
Issued by NWS Sterling, VA

Home | Current Version | Previous Version | Text Only | Print | Product List | Glossary On
Versions: 1 2 3 4 5 6 7 8 9 10 11 12 13 14 15 16 17 18 19 20 21 22 23 24 25 26 27 28 29 30 31 32 33 34 35 36 37 38 39 40 41 42 43 44 45 46 47 48 49 50
000
ASUS41 KLWX 120010
RWRLWX

REGIONAL WEATHER ROUNDUP
NATIONAL WEATHER SERVICE BALTIMORE MD/WASHINGTON DC
700 PM EST MON DEC 11 2017

Note: "FAIR" indicates few or no clouds below 12,000 feet
with no significant weather and/or obstructions to visibility.
 TC=TEMPERATURE CELSIUS

 * =Non NWS site. Station does not report precipitation (e.g. rain,
    snow, etc.), thunder, or fog.

DCZ001-MDZ009-015-VAZ040>042-051-053>054-120100-
WASHINGTON METRO

CITY           SKY/WX    TMP DP  RH WIND       PRES   REMARKS
WASHINGTON NAT PTCLDY    43  28  55 S10       29.97S
DULLES         PTCLDY    40  28  62 SE8       29.94S
ANDREWS AFB    CLEAR     37  26  65 SE7       29.96S
FT BELVOIR     PTCLDY    40  28  61 SE6       29.96S
QUANTICO       CLEAR    N/A N/A N/A S8        29.98R
COLLEGE PARK*  CLEAR     40  26  56 CALM      29.96S
LEESBURG*      CLEAR     43  30  61 S9        29.94F
MANASSAS*      CLEAR     37  28  70 S6        29.95S
GAITHERSBURG*  CLEAR     38  24  57 SE7       29.95R

$$

MDZ006>007-011-014-120100-
BALTIMORE METRO

CITY           SKY/WX    TMP DP  RH WIND       PRES   REMARKS
BWI AIRPORT    PTCLDY    40  29  64 S5        29.96F
MD SCIENCE CTR   N/A     43  29  57 MISG      29.97R
MARTIN STATE   CLEAR     43  34  70 SE10      29.98
ANNAPOLIS      CLEAR     41  32  70 S10G18    29.97F
FORT MEADE*    CLEAR     36  28  75 SE6       29.98S

$$

MDZ012-015-019>023-120100-
MARYLAND EASTERN SHORE

CITY           SKY/WX    TMP DP  RH WIND       PRES   REMARKS
OCEAN CITY     CLEAR     33  29  85 CALM      30.02F
SALISBURY      CLEAR     33  28  81 CALM      30.01F
BAY BRIDGE AP* CLEAR     39  28  65 SE10      29.97F
CAMBRIDGE*     CLEAR     34  30  86 SE7       30.00F
EASTON*        CLEAR     37  28  70 SE5       30.03F

$$

MDZ017>025-120100-
SOUTHERN MARYLAND

CITY           SKY/WX    TMP DP  RH WIND       PRES   REMARKS
PATUXENT RIVER PTCLDY    40  31  70 S6        29.98F
ST INIGOES     CLEAR     40  31  70 SE5       29.98F
LEONARDTOWN*   CLEAR     37  32  81 SE3       29.99F

$$

MDZ003>005-120100-
NORTH CENTRAL MARYLAND

CITY           SKY/WX    TMP DP  RH WIND       PRES   REMARKS
FREDERICK*     CLEAR     39  23  52 CALM      29.96F
HAGERSTOWN APT CLOUDY    42  24  49 SE8       29.89F
WESTMINSTER*   PTCLDY    37  27  65 SE7       29.93S

$$

MDZ501>502-120100-
WESTERN MARYLAND

CITY           SKY/WX    TMP DP  RH WIND       PRES   REMARKS
OAKLAND*       CLOUDY    34  19  55 S10       29.74F WCI  26
CUMBERLAND*    CLOUDY    41  23  48 W3        29.90F

$$

VAZ025>031-120100-
SHENANDOAH VALLEY

CITY           SKY/WX    TMP DP  RH WIND       PRES   REMARKS
WINCHESTER*    PTCLDY    37  25  60 SE6       29.89F
FRONT ROYAL*   FAIR      41  27  56 MISG      29.89S
LURAY*         CLEAR     36  28  75 SW3       29.89F
NEW MARKET*    CLEAR     33  27  78 CALM      29.87F
STAUNTON*      CLEAR     39  25  56 CALM      29.91S
WAYNESBORO*    CLEAR     37  25  61 S3        29.89S

$$

WVZ021-048>050-054>055-120100-
EASTERN WEST VIRGINIA PANHANDLE

CITY           SKY/WX    TMP DP  RH WIND       PRES   REMARKS
MARTINSBURG    MOCLDY    40  23  50 SE6       29.89F
PETERSBURG*    CLEAR     30  23  74 CALM      29.85F

$$

VAZ036>039-050-120100-
CENTRAL FOOTHILLS

CITY           SKY/WX    TMP DP  RH WIND       PRES   REMARKS
CHARLOTTESVILL CLEAR     42  26  53 S5        29.92F
CULPEPER*      FAIR      36  25  65 CALM      29.95F
ORANGE*        CLEAR     37  27  65 CALM      29.93F
GORDONSVILLE*  CLEAR     38  28  67 CALM      29.93F
WARRENTON*     CLEAR     39  23  52 SE3       29.93F

$$

VAZ055>057-120100-
NORTH AND CENTRAL PIEDMONT

CITY           SKY/WX    TMP DP  RH WIND       PRES   REMARKS
FREDERICKSBRG* CLEAR     41  30  64 S7        29.96S
STAFFORD*      CLEAR     39  26  58 SE3       30.00S

$$

NCZ024-NYZ072-PAZ021-071-VAZ022-071-120100-
OTHER REGIONAL OBSERVATIONS

CITY           SKY/WX    TMP DP  RH WIND       PRES   REMARKS
NEW YORK CITY  PTCLDY    38  21  50 W7        30.03R
PHILADELPHIA   MOCLDY    38  24  57 SE5       30.00F
PITTSBURGH     CLOUDY    36  22  56 E5        29.79F
ROANOKE        CLEAR     42  28  57 SE8       29.92F
RICHMOND       CLEAR     36  30  79 S5        29.97F
RALEIGH        CLEAR     45  30  55 S7        30.01S

$$

ANZ530>537-120100-
MARINE OBSERVATIONS

STATION/POSITION TIME  TEMP    WIND        PRES
                       AIR SEA DIR/SP/G
                 (UTC) (F)     (DEG/KT/KT) (MB)
THOMAS PT LIGHT  0000   43 48  160/ 18/ 20   N/A
BALT KEY BRIDGE  2348   43     150/ 15/ 16 1014.2F
COVE POINT       2348   44     180/ 17/ 19 1015.8F
LEWISETTA        2348   41 45  180/  7/  9 1015.6F
SOLOMONS ISLAND  2348   42 49  160/ 10/ 11 1015.0F
PINEY POINT      2348          180/ 15/ 17   N/A

$$




USA.gov is the U.S. government's official web portal to all federal, state and local government web resources and services.